Leadville, CO

6:13 PM MST on November 22, 2019 (GMT -0700)
Lake County

Weather History for KLXV - September, 2019

Change the Weather History Date:

Saturday, September 28, 2019

  Actual Average Record
Temperature  
Mean Temperature 48 °F -  
Max Temperature 64 °F 57 °F 74 °F (2010)
Min Temperature 31 °F 28 °F 18 °F (2013)
Degree Days  
Heating Degree Days 17 23  
Month to date heating degree days 420 529  
Since 1 July heating degree days 1013 1251  
Cooling Degree Days 0 0  
Month to date cooling degree days 0 0  
Year to date cooling degree days 0 0  
Moisture  
Dew Point 29 °F    
Average Humidity 56    
Maximum Humidity 92    
Minimum Humidity 19    
Precipitation  
Precipitation 0.00 in 0.03 in 0.43 in (1990)
Month to date precipitation 0.31 1.03  
Year to date precipitation 12.85 9.98  
Sea Level Pressure  
Sea Level Pressure 29.73 in    
Wind  
Wind Speed 10 mph (SSE)    
Max Wind Speed 24 mph    
Max Gust Speed 34 mph    
Visibility 10 miles    
Events      
T = Trace of Precipitation, MM = Missing Value Source: NWS Daily Summary

Daily Weather History Graph

Daily Weather History Graph

Search for Another Location

Airport or City:

Astronomy

Sep. 28, 2019 Rise Set
Actual Time 6:58 AM MDT 6:52 PM MDT
Civil Twilight 6:31 AM MDT 7:19 PM MDT
Nautical Twilight 6:00 AM MDT 7:50 PM MDT
Astronomical Twilight 5:29 AM MDT 8:21 PM MDT
Moon 6:38 AM MDT (9/28) 7:20 PM MDT (9/28)
Length of Visible Light 12h 47m
Length of Day
11h 54m
Waning Crescent, 0% of the Moon is Illuminated
Sep 28
Waning Crescent
Sep 28
New
Oct 5
First Quarter
Oct 13
Full
Oct 21
Last Quarter

Hourly Weather History & Observations

Time (MDT) Temp. Windchill Dew Point Humidity Pressure Visibility Wind Dir Wind Speed Gust Speed Precip Events Conditions
12:53 AM 45.0 °F - 32.0 °F 60% 29.64 in 10.0 mi Calm Calm - N/A   Mostly Cloudy
1:53 AM 41.0 °F - 30.9 °F 67% 29.64 in 10.0 mi Calm Calm - N/A   Partly Cloudy
2:53 AM 37.9 °F - 30.9 °F 76% 29.65 in 10.0 mi Calm Calm - N/A   Clear
3:53 AM 36.0 °F 31.1 °F 30.0 °F 79% 29.69 in 10.0 mi ENE 5.8 mph - N/A   Clear
4:53 AM 34.0 °F 29.8 °F 30.0 °F 85% 29.70 in 10.0 mi ENE 4.6 mph - N/A   Clear
5:53 AM 33.1 °F 26.9 °F 28.9 °F 85% 29.71 in 10.0 mi East 6.9 mph - N/A   Partly Cloudy
6:53 AM 32.0 °F 28.7 °F 28.9 °F 88% 29.77 in 10.0 mi ENE 3.5 mph - N/A   Clear
7:31 AM 33.1 °F 28.7 °F 30.0 °F 89% 30.13 in 8.0 mi NE 4.6 mph - N/A   Mostly Cloudy
7:53 AM 36.0 °F - 33.1 °F 89% 29.77 in 10.0 mi Calm Calm - N/A   Mostly Cloudy
8:02 AM 37.9 °F 35.5 °F 33.1 °F 83% 30.12 in 10.0 mi NE 3.5 mph - N/A   Scattered Clouds
8:41 AM 39.9 °F - 34.0 °F 79% 30.13 in 10.0 mi Calm Calm - N/A   Mostly Cloudy
8:49 AM 41.0 °F 39.0 °F 33.8 °F 76% 30.13 in 10.0 mi North 3.5 mph - N/A   Scattered Clouds
8:53 AM 41.0 °F 39.0 °F 34.0 °F 76% 29.75 in 10.0 mi Variable 3.5 mph - N/A   Partly Cloudy
9:13 AM 44.1 °F 41.5 °F 34.0 °F 68% 30.13 in 10.0 mi Variable 4.6 mph - N/A   Mostly Cloudy
9:53 AM 44.1 °F 40.8 °F 35.1 °F 71% 29.72 in 10.0 mi SW 5.8 mph - N/A   Mostly Cloudy
10:07 AM 45.0 °F 42.6 °F 35.1 °F 68% 30.12 in 9.0 mi Variable 4.6 mph - N/A   Scattered Clouds
10:53 AM 48.0 °F - 36.0 °F 63% 29.68 in 10.0 mi South 9.2 mph - N/A   Clear
11:53 AM 55.0 °F - 32.0 °F 42% 29.62 in 10.0 mi South 19.6 mph 26.5 mph N/A   Clear
12:53 PM 60.1 °F - 26.1 °F 27% 29.55 in 10.0 mi South 20.7 mph 29.9 mph N/A   Clear
1:53 PM 62.1 °F - 23.0 °F 22% 29.55 in 10.0 mi South 13.8 mph 27.6 mph N/A   Clear
2:53 PM 62.1 °F - 25.0 °F 24% 29.55 in 10.0 mi SSW 15.0 mph 24.2 mph N/A   Partly Cloudy
3:53 PM 63.0 °F - 27.0 °F 26% 29.54 in 10.0 mi South 17.3 mph 21.9 mph N/A   Scattered Clouds
4:53 PM 64.0 °F - 25.0 °F 23% 29.54 in 10.0 mi South 23.0 mph 34.5 mph N/A   Scattered Clouds
5:53 PM 63.0 °F - 19.9 °F 19% 29.55 in 10.0 mi South 21.9 mph 31.1 mph N/A   Mostly Cloudy
6:53 PM 59.0 °F - 21.9 °F 24% 29.59 in 10.0 mi South 23.0 mph 29.9 mph N/A   Clear
7:53 PM 55.9 °F - 21.0 °F 26% 29.62 in 10.0 mi South 12.7 mph 28.8 mph N/A   Clear
8:53 PM 54.0 °F - 21.9 °F 29% 29.61 in 10.0 mi SSE 6.9 mph - N/A   Partly Cloudy
9:53 PM 52.0 °F - 23.0 °F 32% 29.62 in 10.0 mi South 5.8 mph - N/A   Partly Cloudy
10:53 PM 50.0 °F - 24.1 °F 36% 29.59 in 10.0 mi South 5.8 mph - N/A   Mostly Cloudy
11:53 PM 48.9 °F - 27.0 °F 43% 29.56 in 10.0 mi South 5.8 mph - N/A   Mostly Cloudy